[[{"header":{"parameterUnit":"m.s-1","parameterCategory":1,"la1":30.2991,"la2":30.254,"lo1":-89.0895,"lo2":-89.0444,"dy":0.0017,"dx":0.0017,"nx":28,"ny":28,"refTime":"2024-05-13T21:00:00:Z","depth":0,"parameterNumber":2,"parameterNumberName":"U-component_of_WINDS"},"data":[0,0,0,0,0,0,0,0,0,0,0,0,0,0,0,0,0,0,0,0,0,0,0,0,0,0,0,0,0,0,0,0,0,0,0,0,0,0,0,0,0,0,0,0,0,0,0,0,0,0,0,0,0,0,0,0,0,0,-6.1381,-6.1381,0,-6.1424,-6.1424,-6.1425,-6.1314,-6.131,-6.1307,-6.1304,-6.1345,-6.1349,-6.1353,0,0,0,0,0,0,0,0,0,0,0,0,0,-6.1201,-6.1205,-6.1381,-6.1381,-6.1382,-6.1424,-6.1424,-6.1425,-6.1314,-6.131,-6.1306,-6.1302,-6.1343,-6.1348,-6.1353,0,0,0,0,0,0,0,0,0,0,0,0,0,-6.1265,-6.1206,-6.138,-6.1332,-6.1328,-6.1424,-6.1424,-6.1425,-6.1315,-6.131,-6.1305,-6.13,-6.1341,-6.1348,-6.1354,-6.1498,0,0,-6.1374,-6.1377,0,0,0,0,0,0,0,0,-6.1261,-6.1272,-6.1338,-6.1335,-6.1331,-6.1358,-6.1376,-6.145,-6.1317,-6.132,-6.1303,-6.1297,-6.1353,-6.1358,-6.1378,-6.15,-6.1502,-6.1375,-6.1378,-6.1381,-6.1383,0,0,0,0,0,0,0,-6.1257,-6.1269,-6.1397,-6.1339,-6.1335,-6.1307,-6.131,-6.1389,-6.1365,-6.1319,-6.1311,-6.1318,-6.135,-6.1372,-6.1378,-6.1503,-6.1374,-6.138,-6.1384,-6.1387,-6.1746,-6.1752,0,0,0,0,0,0,-6.1259,-6.1266,-6.1396,-6.1399,-6.1283,-6.1315,-6.1318,-6.1355,-6.1364,-6.136,-6.1322,-6.1313,-6.1363,-6.137,-6.1379,-6.1547,-6.1381,-6.1387,-6.1391,-6.1741,-6.1747,-6.1754,0,0,0,0,0,0,-6.1256,-6.1272,-6.1394,-6.133,-6.1344,-6.1323,-6.1365,-6.1358,-6.138,-6.1366,-6.1361,-6.1349,-6.1359,-6.137,-6.147,-6.1547,-6.139,-6.1396,-6.1734,-6.1743,-6.1751,-6.1886,0,0,0,0,0,0,-6.1251,-6.1271,-6.1326,-6.1333,-6.1348,-6.1485,-6.137,-6.1363,-6.1392,-6.1379,-6.139,-6.1387,-6.1356,-6.1461,-6.1476,-6.1553,-6.1401,-6.1727,-6.1738,-6.1748,-6.1875,-6.1898,-6.1918,0,0,0,0,0,-6.1245,-6.1361,-6.1329,-6.1345,-6.1416,-6.149,-6.1498,-6.1462,-6.1398,-6.1453,-6.1445,-6.1386,-6.1538,-6.1472,-6.1488,-6.1569,-6.1722,-6.1735,-6.1747,-6.1865,-6.1894,-6.1918,0,0,0,0,0,0,-6.1362,-6.1361,-6.1325,-6.1448,-6.147,-6.1471,-6.1538,-6.1493,-6.1533,-6.1519,-6.1472,-6.1475,-6.1584,-6.1587,-6.1514,-6.1709,-6.1619,-6.1635,-6.1702,-6.173,-6.1751,-6.1746,-6.1407,0,0,0,0,0,-6.1403,-6.1464,-6.146,-6.1568,-6.1581,-6.1559,-6.1589,-6.156,-6.158,-6.1588,-6.1587,-6.1609,-6.1661,-6.1696,-6.1744,-6.1876,-6.1876,-6.194,-6.1962,-6.198,-6.1994,-6.2064,-6.2091,-6.1795,-6.1795,-6.1795,0,0,-6.1486,-6.1493,-6.1534,-6.1592,-6.1605,-6.1669,-6.1567,-6.1638,-6.1684,-6.1599,-6.1693,-6.1694,-6.1715,-6.1832,-6.1883,-6.1837,-6.2076,-6.1996,-6.2011,-6.2014,-6.208,-6.2108,-6.2132,-6.1804,-6.1803,-6.1801,0,0,-6.1669,-6.1682,-6.1773,-6.179,-6.1813,-6.1798,-6.182,-6.1829,-6.1827,-6.1921,-6.1859,-6.1914,-6.2005,-6.2022,-6.2043,-6.2239,-6.2186,-6.2256,-6.2368,-6.2437,-6.246,-6.2481,-6.2548,-6.2573,-6.227,-6.2271,-6.2271,0,-6.1768,-6.1862,-6.1825,-6.1901,-6.1928,-6.1857,-6.1949,-6.1967,-6.2004,-6.2024,-6.1973,-6.2087,-6.2097,-6.2216,-6.2264,-6.2285,-6.2308,-6.2251,-6.2461,-6.2481,-6.2499,-6.2563,-6.2589,-6.2279,-6.2278,-6.2277,-6.2276,0,-6.1983,-6.205,-6.2121,-6.216,-6.2196,-6.228,-6.2255,-6.2295,-6.2264,-6.2255,-6.2352,-6.2362,-6.241,-6.2437,-6.2407,-6.2554,-6.2524,-6.2469,-6.2375,-6.2536,-6.2595,-6.2619,-6.229,-6.2287,-6.2285,-6.2283,0,0,-6.2235,-6.2257,-6.2283,-6.23,-6.2323,-6.2373,-6.2455,-6.2504,-6.2539,-6.2569,-6.2634,-6.2715,-6.2664,-6.2688,-6.266,-6.2721,-6.2874,-6.2657,-6.2657,-6.2695,-6.3034,-6.3074,-6.3103,-6.2841,-6.2846,-6.285,-6.3032,0,-6.2414,-6.2554,-6.2525,-6.2662,-6.2722,-6.2658,-6.2729,-6.2751,-6.2745,-6.2796,-6.279,-6.2847,-6.2776,-6.279,-6.2849,-6.2843,-6.294,-6.283,-6.29,-6.2903,-6.2892,-6.3134,-6.3175,-6.3346,-6.3055,-6.3059,-6.3062,0,-6.2639,-6.268,-6.2823,-6.2838,-6.2862,-6.2926,-6.2969,-6.3019,-6.3043,-6.3035,-6.3065,-6.3025,-6.3106,-6.3017,-6.3127,-6.3052,-6.308,-6.3082,-6.3088,-6.3089,-6.2989,-6.3139,-6.34,-6.3425,-6.3098,-6.3095,-6.3093,0,-6.2806,-6.2896,-6.2994,-6.3011,-6.3031,-6.3078,-6.3088,-6.3107,-6.3139,-6.3177,-6.3197,-6.3245,-6.327,-6.3308,-6.3282,-6.322,-6.3396,-6.3305,-6.339,-6.3391,-6.3425,-6.3423,-6.3692,-6.3451,-6.3451,-6.345,-6.345,0,-6.3006,-6.3095,-6.3069,-6.3128,-6.3227,-6.3194,-6.3293,-6.3296,-6.3314,-6.3373,-6.3322,-6.3378,-6.3343,-6.3397,-6.3378,-6.3471,-6.3484,-6.3478,-6.3471,-6.3481,-6.3481,-6.3494,-6.348,-6.3457,-6.3455,-6.3454,-6.3453,0,-6.3205,-6.3192,-6.3293,-6.3306,-6.3311,-6.3383,-6.3393,-6.3449,-6.3442,-6.3517,-6.3533,-6.3521,-6.3582,-6.3562,-6.3627,-6.3615,-6.3732,-6.3712,-6.3724,-6.3717,-6.3803,-6.3794,-6.4086,-6.4122,-6.3862,-6.3865,-6.3867,0,-6.3331,-6.3399,-6.342,-6.3457,-6.3471,-6.3531,-6.3564,-6.3536,-6.3572,-6.3607,-6.3658,-6.3715,-6.3758,-6.3858,-6.3855,-6.3905,-6.3883,-6.3983,-6.3889,-6.3897,-6.3881,-6.3875,-6.3881,-6.3999,-6.4002,-6.4005,-6.4007,0,-6.3556,-6.3547,-6.3597,-6.3646,-6.3688,-6.3725,-6.3757,-6.379,-6.3764,-6.3808,-6.387,-6.3904,-6.3972,-6.4028,-6.4075,-6.4084,-6.4041,-6.4037,-6.4059,-6.4066,-6.4069,-6.4066,-6.377,-6.4029,-6.4027,-6.4025,-6.4024,-6.4023,-6.372,-6.3778,-6.3802,-6.386,-6.3882,-6.3914,-6.3967,-6.3969,-6.402,-6.4074,-6.4055,-6.4126,-6.4151,-6.4208,-6.4225,-6.428,-6.4242,-6.4274,-6.4281,-6.4289,-6.4298,-6.4065,-6.4289,-6.4288,-6.4288,-6.4287,-6.4287,0,-6.3939,-6.3953,-6.4007,-6.4055,-6.4101,-6.4061,-6.4095,-6.4136,-6.4199,-6.4227,-6.4272,-6.4344,-6.44,-6.4404,-6.4456,-6.4499,-6.4481,-6.4514,-6.4507,-6.451,-6.4331,-6.4305,-6.4528,-6.4528,-6.4528,-6.4527,-6.4527,-6.4527,-6.4058,-6.4153,-6.4147,-6.4253,-6.4266,-6.4336,-6.4359,-6.4389,-6.441,-6.4494,-6.4541,-6.4544,-6.4562,-6.4615,-6.4665,-6.4664,-6.4684,-6.4724,-6.4716,-6.4547,-6.4523,-6.45,-6.4476,-6.473,-6.473,-6.489,-6.4892,-6.4893]},{"header":{"parameterUnit":"m.s-1","parameterCategory":1,"la1":30.2991,"la2":30.254,"lo1":-89.0895,"lo2":-89.0444,"dy":0.0017,"dx":0.0017,"nx":28,"ny":28,"refTime":"2024-05-13T21:00:00:Z","depth":0,"parameterNumber":3,"parameterNumberName":"V-component_of_WINDS"},"data":[0,0,0,0,0,0,0,0,0,0,0,0,0,0,0,0,0,0,0,0,0,0,0,0,0,0,0,0,0,0,0,0,0,0,0,0,0,0,0,0,0,0,0,0,0,0,0,0,0,0,0,0,0,0,0,0,0,0,1.4482,1.4481,0,1.4424,1.4423,1.4423,1.4432,1.4433,1.4434,1.4435,1.4372,1.437,1.4367,0,0,0,0,0,0,0,0,0,0,0,0,0,1.4599,1.4596,1.4482,1.4481,1.448,1.4424,1.4423,1.4423,1.4432,1.4433,1.4434,1.4436,1.4373,1.437,1.4367,0,0,0,0,0,0,0,0,0,0,0,0,0,1.4545,1.4596,1.4482,1.4478,1.4477,1.4424,1.4423,1.4422,1.4432,1.4433,1.4435,1.4436,1.4374,1.437,1.4366,1.4312,0,0,1.4354,1.4353,0,0,0,0,0,0,0,0,1.4548,1.4541,1.4479,1.4478,1.4477,1.4437,1.4442,1.4385,1.4431,1.4449,1.4435,1.4437,1.4392,1.4387,1.4373,1.4309,1.4306,1.4354,1.4352,1.435,1.4349,0,0,0,0,0,0,0,1.4552,1.4543,1.4459,1.4479,1.4477,1.4479,1.4473,1.4431,1.4413,1.4447,1.4448,1.4441,1.4392,1.4376,1.4371,1.4305,1.4354,1.4351,1.4348,1.4347,1.4196,1.4195,0,0,0,0,0,0,1.4557,1.4546,1.4461,1.4457,1.4517,1.4476,1.4469,1.4448,1.4413,1.4409,1.444,1.4442,1.4382,1.4376,1.4369,1.4303,1.435,1.4346,1.4344,1.4198,1.4196,1.4194,0,0,0,0,0,0,1.4559,1.4549,1.4463,1.4502,1.4491,1.4472,1.4449,1.4446,1.4431,1.4408,1.4404,1.4428,1.4383,1.4375,1.4327,1.4301,1.4345,1.4341,1.42,1.4197,1.4195,1.4171,0,0,0,0,0,0,1.4563,1.455,1.4529,1.4501,1.4489,1.4421,1.4447,1.4444,1.4425,1.4426,1.4395,1.4391,1.4384,1.4333,1.4323,1.4297,1.4338,1.4202,1.4199,1.4196,1.4174,1.4168,1.4163,0,0,0,0,0,1.4567,1.4523,1.4528,1.4517,1.4462,1.442,1.4413,1.4406,1.4422,1.4401,1.4387,1.4392,1.4307,1.4328,1.4317,1.4289,1.4204,1.42,1.4196,1.4176,1.4169,1.4163,0,0,0,0,0,0,1.4545,1.4519,1.4524,1.447,1.4448,1.4422,1.4394,1.4399,1.437,1.4372,1.4365,1.4358,1.4309,1.4295,1.4319,1.4236,1.4257,1.4251,1.4246,1.4239,1.4234,1.4236,1.4335,0,0,0,0,0,1.4535,1.4504,1.4482,1.4437,1.4426,1.4412,1.4393,1.4391,1.4367,1.4356,1.4338,1.4314,1.4282,1.426,1.4229,1.4174,1.4167,1.4149,1.4144,1.414,1.4133,1.4104,1.4096,1.4182,1.4182,1.4182,0,0,1.4512,1.4494,1.4474,1.4432,1.4414,1.4382,1.4404,1.4367,1.4343,1.435,1.4304,1.4291,1.4263,1.4212,1.4188,1.4198,1.4109,1.4135,1.4132,1.4127,1.4099,1.4091,1.4083,1.418,1.418,1.418,0,0,1.4452,1.4436,1.4397,1.438,1.4354,1.4346,1.4337,1.4311,1.4303,1.4257,1.4263,1.4234,1.4178,1.4159,1.4141,1.408,1.4084,1.4071,1.404,1.4012,1.4005,1.3999,1.3976,1.3968,1.4065,1.4065,1.4065,0,1.4426,1.4377,1.4376,1.434,1.4322,1.4331,1.4291,1.4274,1.4238,1.4225,1.4238,1.417,1.4152,1.4096,1.4082,1.4068,1.4057,1.4072,1.4006,1.4,1.3994,1.3972,1.3964,1.4064,1.4064,1.4064,1.4064,0,1.4346,1.4313,1.4285,1.4252,1.4232,1.4194,1.4186,1.4165,1.4167,1.4158,1.4112,1.4092,1.4057,1.4045,1.4044,1.399,1.3997,1.4008,1.4029,1.3984,1.3964,1.3955,1.4061,1.4062,1.4062,1.4063,0,0,1.4266,1.4238,1.4227,1.4213,1.4187,1.4161,1.4125,1.4094,1.4075,1.4052,1.4021,1.3977,1.3988,1.3969,1.3967,1.3942,1.3895,1.3957,1.3956,1.3944,1.3833,1.3822,1.3812,1.3899,1.3898,1.3896,1.3835,0,1.4203,1.4139,1.4139,1.408,1.405,1.4061,1.4029,1.401,1.4002,1.3975,1.3966,1.3934,1.3952,1.3941,1.3917,1.3905,1.3872,1.391,1.3868,1.3867,1.3872,1.3802,1.379,1.3732,1.3827,1.3825,1.3824,0,1.4119,1.4095,1.4034,1.4015,1.4002,1.3974,1.3946,1.3921,1.39,1.3897,1.3877,1.388,1.3844,1.387,1.3819,1.3846,1.383,1.3822,1.382,1.3812,1.384,1.379,1.3714,1.3704,1.3812,1.3813,1.3814,0,1.4064,1.4018,1.3975,1.3964,1.3941,1.3921,1.3911,1.3892,1.3874,1.385,1.3839,1.3811,1.3795,1.3773,1.3769,1.3788,1.3718,1.3744,1.3713,1.3713,1.3694,1.3694,1.361,1.3688,1.3689,1.3689,1.3689,0,1.3991,1.3953,1.3951,1.3924,1.3882,1.3884,1.3842,1.3834,1.3818,1.379,1.3799,1.3772,1.377,1.3743,1.374,1.3698,1.3691,1.3686,1.3685,1.3684,1.3684,1.367,1.3673,1.3686,1.3687,1.3687,1.3688,0,1.3921,1.3918,1.3873,1.3857,1.3853,1.3822,1.3808,1.3783,1.3779,1.3743,1.3735,1.3727,1.3696,1.3692,1.3654,1.3653,1.3602,1.3607,1.3609,1.3609,1.3577,1.358,1.3479,1.3466,1.3555,1.3554,1.3554,0,1.3872,1.3844,1.3826,1.3809,1.3798,1.377,1.3753,1.3755,1.3737,1.3714,1.3691,1.3662,1.3638,1.3589,1.3579,1.3551,1.3553,1.3521,1.3549,1.3549,1.355,1.3551,1.3548,1.3513,1.3512,1.3512,1.3511,0,1.3786,1.3788,1.3763,1.3739,1.3719,1.3699,1.3681,1.3667,1.3667,1.3646,1.3615,1.3597,1.3562,1.3532,1.3506,1.3495,1.3502,1.3503,1.3494,1.349,1.3492,1.3489,1.3591,1.3504,1.3505,1.3505,1.3506,1.3506,1.3724,1.3699,1.3684,1.3657,1.3645,1.3628,1.3605,1.3599,1.3574,1.3546,1.355,1.3516,1.3499,1.3465,1.3453,1.3427,1.3437,1.3425,1.3421,1.3417,1.3413,1.35,1.3422,1.3423,1.3423,1.3423,1.3423,0,1.3636,1.3629,1.3604,1.358,1.3559,1.3573,1.3554,1.3535,1.3506,1.3491,1.3469,1.3435,1.3408,1.3398,1.3372,1.3353,1.3355,1.3345,1.3345,1.3342,1.3406,1.3415,1.3343,1.3343,1.3343,1.3343,1.3343,1.3343,1.3588,1.3547,1.3548,1.3502,1.3495,1.3463,1.3451,1.3437,1.3425,1.3387,1.3365,1.3361,1.3348,1.3321,1.3297,1.3295,1.3284,1.3272,1.3271,1.333,1.3337,1.3345,1.3354,1.327,1.327,1.3209,1.3208,1.3208]}]]